This is the latest recevied weather packets stored in our database for station/object EUGENE. If no packets are shown the sender has not sent any weather packets the latest 10 day(s).
| Time | Temp. | Humidity | Pressure | Rain* | Wind** | Luminosity | Snow |
|---|---|---|---|---|---|---|---|
| 1778121734 | 16.11° C | 74% | 1020.2 hPa | 0 mm | - | - | - |
| 1778120834 | 16.67° C | 73% | 1020.1 hPa | 0 mm | - | - | - |
| 1778119933 | 17.78° C | 71% | 1020 hPa | 0 mm | - | - | - |
| 1778119033 | 18.33° C | 69% | 1020 hPa | 0 mm | - | - | - |
| 1778118134 | 18.89° C | 67% | 1020 hPa | 0 mm | - | - | - |
| 1778117234 | 19.44° C | 67% | 1019.9 hPa | 0 mm | - | - | - |
| 1778116333 | 19.44° C | 66% | 1019.9 hPa | 0 mm | - | - | - |
| 1778115433 | 20.56° C | 64% | 1020 hPa | 0 mm | - | - | - |
| 1778114533 | 21.11° C | 64% | 1019.8 hPa | 0 mm | - | - | - |
| 1778113634 | 21.67° C | 63% | 1019.7 hPa | 0 mm | - | - | - |
| 1778112734 | 22.22° C | 66% | 1019.7 hPa | 0 mm | - | - | - |
| 1778111833 | 22.22° C | 61% | 1019.6 hPa | 0 mm | - | - | - |
| 1778110933 | 22.22° C | 64% | 1019.6 hPa | 0 mm | - | - | - |
| 1778110033 | 22.22° C | 64% | 1019.6 hPa | 0 mm | - | - | - |
| 1778109134 | 22.22° C | 64% | 1019.5 hPa | 0 mm | - | - | - |
| 1778108233 | 22.22° C | 63% | 1019.8 hPa | 0 mm | - | - | - |
| 1778107334 | 21.67° C | 64% | 1020 hPa | 0 mm | - | - | - |
| 1778106434 | 21.67° C | 63% | 1020.2 hPa | 0 mm | - | - | - |
| 1778105533 | 21.67° C | 64% | 1020.2 hPa | 0 mm | - | - | - |
| 1778104633 | 21.67° C | 66% | 1020.3 hPa | 0 mm | - | - | - |
| 1778103733 | 21.11° C | 68% | 1020.4 hPa | 0 mm | - | - | - |
| 1778102833 | 20.56° C | 69% | 1020.6 hPa | 0 mm | - | - | - |
| 1778101933 | 20.56° C | 71% | 1020.7 hPa | 0 mm | - | - | - |
| 1778101033 | 20° C | 70% | 1020.8 hPa | 0 mm | - | - | - |
| 1778100133 | 19.44° C | 72% | 1020.8 hPa | 0 mm | - | - | - |
* Rain latest hour (hover to see other rain measurements)
** Current wind speed in m/s (hover to see current wind gust speed)